FW2346 Weather Reports


Display with metric or nautical units.
time (UTC)temp
F
wind
direction
speed
MPH
gust
MPH
rain 1hr
in
rain 24hr
in
rain mn
in
humidity
%
barometer
mb
20260902004550 75 217 0.0 1.0 0.00 0.00 0.00 53 1017.0
20260902003048 76 191 0.0 2.0 0.00 0.00 0.00 52 1017.0
20260902001547 76 248 0.0 2.0 0.00 0.00 0.00 51 1016.9
20260902000040 77 253 1.0 2.0 0.00 0.00 0.00 52 1016.9
20260901234559 77 236 0.0 2.0 0.00 0.00 0.00 52 1016.9
20260901233003 76 232 0.0 0.0 0.00 0.00 0.00 54 1017.1
20260901231520 76 232 0.0 1.0 0.00 0.00 0.00 54 1017.1
20260901230036 76 230 0.0 2.0 0.00 0.00 0.00 54 1017.2
20260901224551 76 232 1.0 3.0 0.00 0.00 0.00 55 1017.2
20260901223044 77 250 1.0 3.0 0.00 0.00 0.00 55 1017.1
20260901221607 77 227 0.0 3.0 0.00 0.00 0.00 57 1017.1
20260901220047 78 257 0.0 4.0 0.00 0.00 0.00 56 1017.0
20260901214534 78 261 0.0 4.0 0.00 0.00 0.00 57 1017.0
20260901213056 79 236 2.0 4.0 0.00 0.00 0.00 55 1017.2
20260901211529 79 255 3.0 6.0 0.00 0.00 0.00 55 1017.1
20260901210010 80 274 3.0 6.0 0.00 0.00 0.00 55 1017.1
20260901204516 81 262 2.0 7.0 0.00 0.00 0.00 54 1016.8
20260901203027 82 266 4.0 8.0 0.00 0.00 0.00 55 1016.5
20260901201510 83 231 3.0 7.0 0.00 0.00 0.00 47 1016.0
20260901200009 84 274 3.0 6.0 0.00 0.00 0.00 42 1015.6
20260901194506 84 255 2.0 6.0 0.00 0.00 0.00 42 1015.3
20260901193005 85 264 2.0 7.0 0.00 0.00 0.00 43 1014.9
20260901191539 85 261 3.0 7.0 0.00 0.00 0.00 42 1014.6
20260901190045 86 264 2.0 5.0 0.00 0.00 0.00 40 1014.4
20260901184550 87 235 2.0 7.0 0.00 0.00 0.00 40 1014.3
20260901183054 89 273 4.0 12.0 0.00 0.00 0.00 39 1014.2
20260901181613 90 322 1.0 11.0 0.00 0.00 0.00 39 1013.9
20260901180042 91 266 2.0 13.0 0.00 0.00 0.00 38 1013.8
20260901174547 91 266 7.0 12.0 0.00 0.00 0.00 37 1013.8
20260901173043 92 269 5.0 12.0 0.00 0.00 0.00 36 1013.7
20260901171607 93 277 4.0 9.0 0.00 0.00 0.00 34 1013.7
20260901170027 94 308 2.0 12.0 0.00 0.00 0.00 30 1013.7
20260901164544 94 251 4.0 10.0 0.00 0.00 0.00 30 1013.7
20260901163043 95 265 4.0 10.0 0.00 0.00 0.00 29 1013.7
20260901161541 95 279 3.0 13.0 0.00 0.00 0.00 29 1013.6
20260901160041 95 269 2.0 9.0 0.00 0.00 0.00 31 1013.7
20260901154542 95 255 4.0 10.0 0.00 0.00 0.00 32 1013.7
20260901153031 95 133 3.0 7.0 0.00 0.00 0.00 34 1013.8
20260901151538 95 195 2.0 11.0 0.00 0.00 0.00 34 1013.9
20260901150037 95 260 4.0 9.0 0.00 0.00 0.00 33 1014.0
20260901144537 94 191 3.0 11.0 0.00 0.00 0.00 33 1014.2
20260901143008 94 211 5.0 10.0 0.00 0.00 0.00 34 1014.2
20260901141540 93 211 1.0 9.0 0.00 0.00 0.00 36 1014.4
20260901140104 94 179 4.0 14.0 0.00 0.00 0.00 35 1014.5
20260901134537 93 265 3.0 11.0 0.00 0.00 0.00 37 1014.7
20260901133018 93 144 1.0 12.0 0.00 0.00 0.00 36 1014.8
20260901131515 92 255 2.0 10.0 0.00 0.00 0.00 37 1015.0
20260901130008 92 265 6.0 12.0 0.00 0.00 0.00 37 1015.0
20260901124547 92 264 1.0 8.0 0.00 0.00 0.00 36 1015.1
20260901123044 90 232 4.0 9.0 0.00 0.00 0.00 37 1015.2
20260901121607 90 335 1.0 8.0 0.00 0.00 0.00 37 1015.3
20260901120021 90 134 1.0 7.0 0.00 0.00 0.00 36 1015.4
20260901114507 89 179 1.0 9.0 0.00 0.00 0.00 38 1015.6
20260901113004 88 248 3.0 8.0 0.00 0.00 0.00 38 1015.8
20260901111502 86 254 3.0 8.0 0.00 0.00 0.00 40 1015.8
20260901110005 87 226 3.0 8.0 0.00 0.00 0.00 38 1015.9
20260901104504 88 154 2.0 6.0 0.00 0.00 0.00 38 1016.1
20260901103055 86 243 1.0 4.0 0.00 0.00 0.00 39 1016.1
20260901101603 84 64 0.0 3.0 0.00 0.00 0.00 41 1016.0
20260901100052 84 120 1.0 6.0 0.00 0.00 0.00 40 1016.1
20260901094548 83 22 0.0 3.0 0.00 0.00 0.00 40 1016.0
20260901093048 83 117 0.0 3.0 0.00 0.00 0.00 41 1016.0
20260901091553 81 217 0.0 4.0 0.00 0.00 0.00 45 1016.0
20260901090037 79 99 3.0 6.0 0.00 0.00 0.00 46 1015.9
20260901084540 79 96 1.0 3.0 0.00 0.00 0.00 49 1016.0
20260901083035 78 117 0.0 3.0 0.00 0.00 0.00 50 1015.8
20260901081516 77 82 1.0 4.0 0.00 0.00 0.00 51 1015.8
20260901080135 76 68 3.0 7.0 0.00 0.00 0.00 52 1015.8
20260901074537 74 94 1.0 4.0 0.00 0.00 0.00 53 1015.6
20260901073048 73 114 2.0 5.0 0.00 0.00 0.00 52 1015.6
20260901071542 72 68 0.0 3.0 0.00 0.00 0.00 51 1015.5
20260901070048 72 56 1.0 2.0 0.00 0.00 0.00 51 1015.3
20260901064559 71 120 0.0 1.0 0.00 0.00 0.00 52 1015.2
20260901063103 69 131 0.0 1.0 0.00 0.00 0.00 55 1015.0
20260901061606 68 139 0.0 3.0 0.00 0.00 0.00 56 1015.0
20260901060050 68 188 0.0 5.0 0.00 0.00 0.00 55 1014.9
20260901054520 67 321 0.0 0.0 0.00 0.00 0.00 56 1014.6
20260901053036 67 321 0.0 4.0 0.00 0.00 0.00 56 1014.4
20260901051509 69 323 2.0 5.0 0.00 0.00 0.00 53 1014.4
20260901050008 68 326 1.0 4.0 0.00 0.00 0.00 55 1014.3
20260901044509 70 322 2.0 4.0 0.00 0.00 0.00 54 1014.3
20260901043011 71 355 1.0 3.0 0.00 0.00 0.00 53 1014.3
20260901041506 70 330 0.0 2.0 0.00 0.00 0.00 56 1014.6
20260901040009 69 330 0.0 1.0 0.00 0.00 0.00 57 1014.7
20260901034505 70 330 0.0 2.0 0.00 0.00 0.00 57 1014.8
20260901033013 69 329 0.0 2.0 0.00 0.00 0.00 60 1014.8
20260901031516 68 318 1.0 4.0 0.00 0.00 0.00 62 1014.7
20260901030046 69 331 1.0 4.0 0.00 0.00 0.00 64 1014.7
20260901024549 69 22 0.0 1.0 0.00 0.00 0.00 66 1014.8
20260901023001 69 85 0.0 3.0 0.00 0.00 0.00 68 1014.9
20260901021526 69 113 2.0 4.0 0.00 0.00 0.00 62 1015.0
20260901020039 70 60 1.0 2.0 0.00 0.00 0.00 62 1015.1
20260901014541 70 213 0.0 1.0 0.00 0.00 0.00 62 1015.2
20260901013119 69 141 0.0 4.0 0.00 0.00 0.00 65 1015.2
20260901011600 70 147 1.0 3.0 0.00 0.00 0.00 63 1015.3
20260901010004 70 157 1.0 4.0 0.00 0.00 0.00 59 1015.2